Change the Weather History Date:

Saturday, January 19, 2013

  Actual Average Record
Temperature  
Mean Temperature 23 °F -  
Max Temperature 35 °F 24 °F 43 °F (2014)
Min Temperature 10 °F 1 °F -19 °F (2011)
Degree Days  
Heating Degree Days 42    
Cooling Degree Days 0    
Moisture  
Dew Point 11 °F    
Average Humidity 75    
Maximum Humidity 85    
Minimum Humidity 68    
Precipitation  
Precipitation T in 0.01 in 0.07 in (2006)
Month to date precipitation 0.05 0.23  
Year to date precipitation 0.05 0.23  
Sea Level Pressure  
Sea Level Pressure 30.28 in    
Wind  
Wind Speed 10 mph (NNE)    
Max Wind Speed 22 mph    
Max Gust Speed 28 mph    
Visibility 9 miles    
Events Snow    
T = Trace of Precipitation, MM = Missing Value Source: NWS Daily Summary

Daily Weather History Graph

Daily Weather History Graph

Search for Another Location

Airport or City:

Trip Planner

Search our weather history database for the weather conditions in past years. The results will help you decide how hot, cold, wet, or windy it might be!

Date:

Astronomy

Jan. 19, 2013 Rise Set
Actual Time 7:44 AM MST 4:42 PM MST
Civil Twilight 7:09 AM MST 5:17 PM MST
Nautical Twilight 6:31 AM MST 5:55 PM MST
Astronomical Twilight 5:54 AM MST 6:32 PM MST
Moon 11:15 AM MST (1/19) 1:14 AM MST (1/19)
Length of Visible Light 10h 07m
Length of Day
8h 58m
First Quarter, 58% of the Moon is Illuminated
Jan 19
First Quarter
Jan 26
Full
Feb 3
Last Quarter
Feb 10
New
Feb 17
First Quarter

Hourly Weather History & Observations

Time (MST) Temp. Windchill Dew Point Humidity Pressure Visibility Wind Dir Wind Speed Gust Speed Precip Events Conditions
12:53 AM 34.0 °F 28.0 °F 28.0 °F 79% 29.94 in 10.0 mi WSW 6.9 mph - N/A   Overcast
1:53 AM 34.0 °F 23.8 °F 25.0 °F 70% 29.97 in 10.0 mi NW 16.1 mph - N/A   Clear
2:53 AM 34.0 °F 25.0 °F 26.1 °F 73% 30.00 in 10.0 mi NW 12.7 mph - N/A   Mostly Cloudy
3:53 AM 33.1 °F 26.1 °F 26.1 °F 75% 30.02 in 10.0 mi WSW 8.1 mph - N/A   Overcast
4:53 AM 30.0 °F 24.1 °F 25.0 °F 82% 30.07 in 10.0 mi West 5.8 mph - N/A   Overcast
5:12 AM 28.4 °F 18.5 °F 23.0 °F 80% 30.02 in 10.0 mi North 11.5 mph - N/A   Overcast
5:53 AM 25.0 °F 14.8 °F 19.0 °F 78% 30.17 in 10.0 mi North 10.4 mph 17.3 mph N/A   Overcast
6:53 AM 21.9 °F 10.4 °F 16.0 °F 78% 30.22 in 10.0 mi NNW 11.5 mph - N/A   Overcast
7:45 AM 21.2 °F 7.3 °F 15.8 °F 80% 30.20 in 10.0 mi NNW 16.1 mph 21.9 mph N/A   Overcast
7:53 AM 21.0 °F 6.2 °F 14.0 °F 74% 30.30 in 10.0 mi North 18.4 mph - N/A   Overcast
8:00 AM 19.4 °F 3.6 °F 12.2 °F 74% 30.21 in 10.0 mi North 19.6 mph 26.5 mph N/A   Overcast
8:53 AM 18.0 °F 0.9 °F 10.0 °F 71% 30.35 in 10.0 mi NNW 21.9 mph 27.6 mph N/A   Overcast
9:53 AM 16.0 °F 0.6 °F 8.1 °F 71% 30.41 in 10.0 mi North 16.1 mph 21.9 mph N/A   Overcast
10:17 AM 15.8 °F 2.1 °F 6.8 °F 68% 30.34 in 10.0 mi NNW 12.7 mph - N/A   Overcast
10:53 AM 16.0 °F 1.7 °F 7.0 °F 68% 30.44 in 10.0 mi North 13.8 mph - N/A   Overcast
11:05 AM 15.8 °F 2.1 °F 8.6 °F 73% 30.34 in 10.0 mi North 12.7 mph - N/A   Overcast
11:45 AM 15.8 °F 2.7 °F 6.8 °F 68% 30.34 in 10.0 mi North 11.5 mph - N/A   Overcast
11:53 AM 16.0 °F 3.6 °F 7.0 °F 68% 30.44 in 10.0 mi North 10.4 mph - N/A   Overcast
12:53 PM 15.1 °F 6.4 °F 7.0 °F 70% 30.44 in 10.0 mi NNE 5.8 mph - N/A   Mostly Cloudy
1:26 PM 15.8 °F 6.1 °F 6.8 °F 68% 30.33 in 10.0 mi NNE 6.9 mph - N/A   Scattered Clouds
1:53 PM 15.1 °F 9.4 °F 6.1 °F 68% 30.43 in 10.0 mi East 3.5 mph - N/A   Mostly Cloudy
2:53 PM 14.0 °F 5.1 °F 6.1 °F 71% 30.44 in 10.0 mi ENE 5.8 mph - N/A   Partly Cloudy
3:53 PM 12.9 °F 1.6 °F 6.1 °F 74% 30.43 in 10.0 mi East 8.1 mph - N/A   Mostly Cloudy
4:53 PM 12.0 °F 2.7 °F 5.0 °F 73% 30.40 in 10.0 mi East 5.8 mph - N/A   Overcast
5:53 PM 10.9 °F -0.8 °F 5.0 °F 77% 30.41 in 10.0 mi East 8.1 mph - N/A   Overcast
6:53 PM 10.0 °F -0.9 °F 3.9 °F 76% 30.40 in 10.0 mi ENE 6.9 mph - N/A   Overcast
7:53 PM 10.0 °F -1.9 °F 3.9 °F 76% 30.40 in 10.0 mi ENE 8.1 mph - N/A   Overcast
8:53 PM 10.0 °F -0.9 °F 3.9 °F 76% 30.38 in 10.0 mi ENE 6.9 mph - N/A   Overcast
9:53 PM 10.4 °F -2.4 °F 3.2 °F 73% 30.25 in 10.0 mi ENE 9.2 mph - N/A   Overcast
10:49 PM 10.4 °F 2.2 °F 5.0 °F 79% 30.24 in 1.8 mi ENE 4.6 mph - 0.00 in Snow Light Snow
10:53 PM 10.0 °F 1.8 °F 5.0 °F 80% 30.38 in 1.5 mi ENE 4.6 mph - 0.00 in Snow Light Snow
11:06 PM 10.4 °F 0.8 °F 6.8 °F 85% 30.25 in 1.8 mi ENE 5.8 mph - 0.00 in Snow Light Snow
11:38 PM 10.4 °F -0.4 °F 6.8 °F 85% 30.26 in 2.0 mi NE 6.9 mph - 0.00 in Snow Light Snow
11:50 PM 10.4 °F -0.4 °F 6.8 °F 85% 30.26 in 2.0 mi NE 6.9 mph - 0.00 in Snow Light Snow
11:53 PM 10.0 °F -1.9 °F 6.1 °F 84% 30.40 in 1.8 mi NE 8.1 mph - 0.00 in Snow Light Snow